Simultaneous Nadir Overpasses (SNOs) Predictions

Prediction of SNOs between LANDSAT-8 and METOP-A Satellite Orbit:

Table of predicted SNOs for the next 14.0 days since TLE Epoch: 5/18/2018
Index Date (LANDSAT-8) Time (LANDSAT-8) Lat,Lon (LANDSAT-8) SZA (LANDSAT-8 ) Date (METOP-A) Time (METOP-A) Lat,Lon (METOP-A) SZA (METOP-A ) Distance(km) Time Diff (sec)
1 05/18/2018 15:50:52 -81.32, 164.58 115.88 05/18/2018 15:49:51 -81.32, 164.45 115.92 2.12 61
2 05/18/2018 16:40:17 81.35, -27.27 64.19 05/18/2018 16:40:29 81.34, -27.21 64.20 1.12 12
3 05/21/2018 11:25:05 -81.32,-128.94 116.47 05/21/2018 11:24:08 -81.33,-128.88 116.48 1.26 57
4 05/21/2018 12:14:30 81.35, 39.18 63.60 05/21/2018 12:14:47 81.34, 39.06 63.59 2.15 17
5 05/24/2018 06:59:17 -81.32, -62.50 117.01 05/24/2018 06:58:25 -81.32, -62.62 117.05 2.00 52
6 05/24/2018 07:48:42 81.34, 105.59 63.05 05/24/2018 07:49:03 81.34, 105.70 63.07 1.92 21
7 05/27/2018 02:33:29 -81.34, 4.29 117.46 05/27/2018 02:32:41 -81.34, 4.40 117.48 1.97 48
8 05/27/2018 03:22:55 81.34, 171.97 62.54 05/27/2018 03:23:21 81.34, 171.94 62.55 0.55 26
9 05/29/2018 22:07:42 -81.34, 70.66 117.93 05/29/2018 22:06:59 -81.33, 70.63 117.95 0.76 43




NCC Satellite Simultaneous Nadir Overpasses (SNOs) Prediction Service
